KE0TRL Weather Reports


time (UTC)temp
F
wind
direction
speed
knots
gust
knots
rain 1hr
in
rain 24hr
in
rain mn
in
humidity
%
barometer
mb
20260510045306 53 180 0.0 0.9 0.00 0.00 0.01 48 1014.6
20260510041802 54 158 1.7 1.7 0.00 0.00 0.01 45 1014.2
20260510035602 55 203 1.7 2.6 0.00 0.00 0.01 44 1013.9
20260510034601 56 180 1.7 2.6 0.00 0.00 0.01 44 1013.5
20260510033003 56 158 1.7 3.5 0.00 0.00 0.01 44 1013.5
20260510031902 56 135 2.6 2.6 0.00 0.00 0.01 44 1013.2
20260510030702 57 158 2.6 2.6 0.00 0.00 0.01 44 1013.2
20260510025602 58 225 0.9 1.7 0.00 0.00 0.01 43 1012.9
20260510024503 58 180 1.7 1.7 0.00 0.00 0.01 43 1012.9
20260510023402 59 203 0.0 0.9 0.00 0.00 0.01 41 1012.2
20260510022306 59 180 1.7 1.7 0.00 0.00 0.01 40 1012.2
20260510021202 60 203 0.9 0.9 0.00 0.00 0.01 40 1011.9
20260510015002 62 180 2.6 2.6 0.00 0.00 0.01 37 1011.5
20260510013902 63 180 3.5 3.5 0.00 0.00 0.01 39 1011.2
20260510012802 63 180 3.5 3.5 0.00 0.00 0.01 37 1010.8
20260510011703 64 180 0.9 4.3 0.00 0.00 0.01 37 1010.5
20260510010602 65 180 0.9 2.6 0.00 0.00 0.01 37 1010.5
20260510005503 66 180 1.7 4.3 0.00 0.00 0.01 39 1010.2
20260510004402 67 180 1.7 2.6 0.00 0.00 0.01 39 1010.2
20260510003302 67 135 2.6 2.6 0.00 0.00 0.01 41 1010.2
20260510002202 67 203 2.6 3.5 0.00 0.00 0.01 41 1009.8
20260510001102 67 180 2.6 2.6 0.00 0.00 0.01 40 1010.2
20260510000004 68 158 4.3 5.2 0.00 0.00 0.01 40 1010.2
20260509234902 68 158 1.7 4.3 0.00 0.00 0.01 41 1009.8
20260509233802 68 203 2.6 3.5 0.00 0.00 0.01 44 1009.8
20260509232702 68 203 0.9 3.5 0.00 0.00 0.01 44 1009.8
20260509231504 69 203 1.7 1.7 0.00 0.00 0.01 45 1009.5
20260509230402 69 135 3.5 3.5 0.00 0.00 0.01 45 1009.8
20260509225305 68 158 1.7 3.5 0.00 0.00 0.01 45 1009.8
20260509224003 68 158 1.7 6.1 0.00 0.00 0.01 45 1009.8
20260509222902 69 180 3.5 3.5 0.00 0.00 0.01 45 1009.5
20260509221802 69 113 2.6 3.5 0.00 0.00 0.01 45 1009.5
20260509220702 69 180 2.6 3.5 0.00 0.00 0.01 45 1009.5
20260509215602 69 293 3.5 3.5 0.00 0.00 0.01 45 1009.5
20260509214502 69 315 5.2 5.2 0.00 0.00 0.01 45 1009.1
20260509212202 69 293 5.2 5.2 0.00 0.00 0.01 45 1009.1
20260509211102 69 180 3.5 7.8 0.00 0.00 0.01 44 1008.8
20260509210003 71 203 3.5 6.1 0.00 0.00 0.01 41 1008.8
20260509204902 71 248 9.6 10.4 0.00 0.00 0.01 40 1008.8
20260509203802 71 225 5.2 7.0 0.00 0.00 0.01 40 1008.8
20260509202701 72 180 3.5 4.3 0.00 0.00 0.01 37 1008.8
20260509201502 74 225 4.3 7.8 0.00 0.00 0.01 37 1008.5
20260509195302 76 225 2.6 5.2 0.00 0.00 0.01 37 1008.1
20260509194102 76 225 6.1 6.1 0.00 0.00 0.01 35 1007.8
20260509193003 75 180 1.7 3.5 0.00 0.00 0.01 35 1007.5
20260509191902 76 180 3.5 3.5 0.00 0.00 0.01 30 1007.5
20260509185602 77 203 2.6 4.3 0.00 0.00 0.01 27 1007.5
20260509184502 77 113 1.7 4.3 0.00 0.00 0.01 30 1007.1
20260509183402 75 180 3.5 3.5 0.00 0.00 0.01 30 1007.5
20260509182306 76 203 2.6 4.3 0.00 0.00 0.01 31 1007.5
20260509181102 77 225 1.7 2.6 0.00 0.00 0.01 30 1007.1
20260509174702 75 203 5.2 5.2 0.00 0.00 0.01 30 1007.1
20260509173603 74 113 1.7 4.3 0.00 0.00 0.01 29 1007.1
20260509172602 73 203 1.7 3.5 0.00 0.00 0.01 29 1007.1
20260509170402 73 180 0.9 2.6 0.00 0.00 0.01 31 1007.5
20260509165306 73 113 5.2 5.2 0.00 0.00 0.01 30 1007.1
20260509164202 71 158 1.7 2.6 0.00 0.00 0.01 30 1007.1
20260509163003 72 180 1.7 1.7 0.00 0.00 0.01 30 1007.1
20260509162002 71 270 1.7 5.2 0.00 0.00 0.01 32 1007.1
20260509160902 70 203 1.7 3.5 0.00 0.00 0.01 34 1007.1
20260509155702 70 180 2.6 4.3 0.01 0.00 0.01 35 1007.1
20260509154603 69 203 0.9 3.5 0.01 0.00 0.01 35 1007.8
20260509152402 68 315 2.6 2.6 0.00 0.00 0.00 37 1007.8
20260509151202 68 180 2.6 4.3 0.00 0.00 0.00 39 1007.5
20260509150003 67 180 3.5 5.2 0.00 0.00 0.00 40 1007.5
20260509143702 64 180 3.5 3.5 0.00 0.00 0.00 45 1006.8
20260509142602 64 68 1.7 3.5 0.00 0.00 0.00 45 1006.4
20260509141503 63 68 0.9 3.5 0.00 0.00 0.00 50 1006.8
20260509140503 62 45 2.6 3.5 0.00 0.00 0.00 49 1006.4
20260509135402 60 45 2.6 4.3 0.00 0.00 0.00 51 1006.4
20260509134302 58 23 2.6 3.5 0.00 0.00 0.00 54 1006.4
20260509133102 58 68 1.7 4.3 0.00 0.00 0.00 54 1006.4
20260509130802 54 23 2.6 2.6 0.00 0.00 0.00 60 1006.4
20260509125702 54 68 1.7 2.6 0.00 0.00 0.00 56 1006.4
20260509124602 53 68 1.7 2.6 0.00 0.00 0.00 61 1006.4
20260509123502 52 45 2.6 2.6 0.00 0.00 0.00 61 1006.4
20260509122502 50 45 1.7 1.7 0.00 0.00 0.00 63 1006.4
20260509121402 50 68 1.7 1.7 0.00 0.00 0.00 63 1006.4
20260509120302 49 45 1.7 1.7 0.00 0.00 0.00 65 1006.1
20260509114003 49 45 0.9 0.9 0.00 0.00 0.00 65 1005.8
20260509112702 48 45 0.9 1.7 0.00 0.00 0.00 65 1006.1
20260509111603 49 45 0.9 1.7 0.00 0.00 0.00 65 1005.8
20260509110601 49 45 1.7 1.7 0.00 0.00 0.00 65 1005.8
20260509105502 49 45 1.7 1.7 0.00 0.00 0.00 65 1005.8
20260509104108 49 45 1.7 1.7 0.00 0.00 0.00 63 1005.8
20260509103003 49 68 1.7 1.7 0.00 0.00 0.00 63 1005.8
20260509101902 49 45 1.7 2.6 0.00 0.00 0.00 63 1005.8
20260509100702 49 45 1.7 1.7 0.00 0.00 0.00 63 1006.1
20260509095602 49 45 1.7 2.6 0.00 0.00 0.00 63 1005.8
20260509092305 51 68 1.7 1.7 0.00 0.00 0.00 60 1005.8
20260509091202 51 45 1.7 1.7 0.00 0.00 0.00 59 1006.1
20260509085402 51 45 2.6 2.6 0.00 0.00 0.00 59 1005.8
20260509083102 51 45 1.7 2.6 0.00 0.00 0.00 56 1005.8
20260509082002 51 68 1.7 1.7 0.00 0.00 0.00 56 1005.4
20260509080603 51 45 1.7 1.7 0.00 0.00 0.00 55 1005.8
20260509075602 51 45 0.9 1.7 0.00 0.00 0.00 55 1005.8
20260509074502 52 45 1.7 2.6 0.00 0.00 0.00 55 1005.4
20260509073402 53 113 0.0 0.0 0.00 0.00 0.00 54 1005.8
20260509072306 53 90 0.0 0.0 0.00 0.00 0.00 54 1005.8
20260509071203 53 90 0.0 1.7 0.00 0.00 0.00 53 1005.8
20260509065003 54 68 1.7 1.7 0.00 0.00 0.00 51 1005.8
20260509064002 54 23 1.7 1.7 0.00 0.00 0.00 50 1006.1
20260509062902 55 113 0.0 0.0 0.00 0.00 0.00 50 1006.1
20260509061802 56 68 0.9 1.7 0.00 0.00 0.00 49 1005.8
20260509060702 56 158 0.0 1.7 0.00 0.00 0.00 48 1006.1
20260509055602 57 45 1.7 1.7 0.00 0.00 0.00 45 1005.8
20260509054502 59 338 1.7 1.7 0.00 0.00 0.00 44 1006.1
20260509051102 60 203 0.9 1.7 0.00 0.00 0.00 40 1005.8
20260509050003 61 90 1.7 1.7 0.00 0.00 0.00 40 1005.8